Hourly Data Report for October 01, 2017

All times are specified in Local Standard Time (LST). Add 1 hour to adjust for Daylight Saving Time where and when it is observed.

BATHURST A
NEW BRUNSWICK

47°37'47.000" N
65°44'20.000" W
58.80 m
8100505
71574
ZBF

Download Data

Hourly Data (October 2017)
Hourly Data Report for October 1, 2017
Temp Definition
°C
Dew Point Temp Definition
°C
Rel Hum Definition
%
Wind Dir Definition
10's deg

Wind Spd Definition
km/h
Visibility Definition
km
Stn Press Definition
kPa
Hmdx Definition


Wind Chill Definition


Weather Definition


TIME
00:00 Legend Double Dagger 1.5 -0.2 89 22 9 24.1 101.54     LegendNANA
01:00 Legend Double Dagger 0.5 -0.6 92 24 8 24.1 101.51     LegendNANA
02:00 Legend Double Dagger 0.3 -1.0 91 23 7 24.1 101.45     Clear
03:00 Legend Double Dagger -0.7 -1.4 95 16 4 24.1 101.37   -2 LegendNANA
04:00
05:00 Legend Double Dagger 0.1 -1.2 91 20 5 24.1 101.28     Clear
06:00 Legend Double Dagger 0.7 -1.0 88 21 6 24.1 101.24     LegendNANA
07:00 Legend Double Dagger 2.6 0.3 85 22 10 24.1 101.20     LegendNANA
08:00 Legend Double Dagger 8.0 2.2 67 25 22 24.1 101.21     Mostly Cloudy
09:00 Legend Double Dagger 9.4 1.6 58 26 35 24.1 101.16     LegendNANA
10:00 Legend Double Dagger 12.1 2.9 53 25 25 24.1 101.11     LegendNANA
11:00 Legend Double Dagger 14.9 3.8 47 26 24 24.1 101.04     Clear
12:00 Legend Double Dagger 15.9 3.5 43 27 29 24.1 100.97     LegendNANA
13:00 Legend Double Dagger 17.2 3.9 41 28 13 24.1 100.89     LegendNANA
14:00 Legend Double Dagger 17.9 2.8 36 28 25 24.1 100.85     Clear
15:00 Legend Double Dagger 18.4 4.1 38 27 18 24.1 100.79     LegendNANA
16:00 Legend Double Dagger 18.3 2.8 35 28 15 24.1 100.80     LegendNANA
17:00 Legend Double Dagger 17.5 3.9 40 26 9 24.1 100.85     Clear
18:00 Legend Double Dagger 13.2 5.1 58 24 7 24.1 100.92     LegendNANA
19:00 Legend Double Dagger 13.5 4.4 54 27 10 24.1 101.01     LegendNANA
20:00 Legend Double Dagger 11.1 5.3 67 24 7 24.1 101.09     Mainly Clear
21:00 Legend Double Dagger 8.3 5.9 85 14 4 24.1 101.15     LegendNANA
22:00 Legend Double Dagger 7.3 4.8 84 25 5 24.1 101.18     LegendNANA
23:00 Legend Double Dagger 5.9 4.4 90 27 4 24.1 101.22     Clear

Notes on Data Quality.

Legend

  • E = Estimated
  • M = Missing
  • NA = Not Available
  • ‡ = Partner data that is not subject to review by the National Climate Archives
Date modified: